SOYUZ-MS 02

Last updated on Tue Apr 11 2017 00:15:04 GMT+0000 (Coordinated Universal Time)

1 41820U 16063A 17099.31803792 .00003510 00000-0 60428-4 0 9993 2 41820 51.6436 21.5790 0006756 40.2971 107.7536 15.54046698 51040
UTC large
Height (km)
Speed (km/s)
/
Latitude / Longitude
Inclination (degrees)
Orbital Period (minutes)
Azimuth
Elevation
Range (km)
Doppler Factor

Next 0 passes for location: London (51.5072 / 0.1276)

Sorry there are no passes over London.